Flag for Germany Weather past 2 weeks in Lemgo, North Rhine-Westphalia, Germany

Now
48 °F

Overcast.


Feels Like: 48 °F
Forecast: 40 / 54 °F
Wind: 2 mph from West

Location: Bad Lippspringe

Current Time: Oct 23, 2014 at 1:16:52 AM

Latest Report: Oct 23, 2014 at 12:00 AM


Visibility: 11 mi

Pressure: 30.13 "Hg

Humidity: 76%

Dew point: 40 °F

Location of LemgoLocation

Historic Weather in Lemgo — Graph

°F

Lemgo temperature yesterday

Maximum temperature yesterday: 50 °F (at 5:00 PM)
Minimum temperature yesterday: 43 °F (at 4:00 AM)
Average temperature yesterday: 46 °F

Past Weeks' High & Low Weather Summary

 TemperatureHumidityPressure
High74 °F (Oct 19, 3:00 PM)99% (Oct 11, 8:00 AM)30.16 "Hg (Oct 11, 8:00 AM)
Low43 °F (Oct 22, 4:00 AM)54% (Oct 14, 3:00 PM)29.44 "Hg (Oct 21, 6:00 PM)
Average56 °F83%29.86 "Hg
* Reported Midnight between Oct 7 and Oct 8 — Midnight between Oct 22 and Oct 23, Lemgo, Weather by CustomWeather, © 2014

Note: Actual official high and low records may vary slightly from our data, if they occured in-between our weather recording intervals... More about our weather records

Advertising

Lemgo weather history for previous 24 hours

 ConditionsComfort  
Time TempWeatherWind HumidityBarometerVisibility
12:00 AM
Oct 23
48 °FOvercast.2 mph76%30.13 "Hg11 mi
11:00 PM
Oct 22
48 °FOvercast.5 mph73%30.12 "Hg11 mi
10:00 PM49 °FOvercast.5 mph72%30.11 "Hg10 mi
9:00 PM49 °FOvercast.5 mph73%30.08 "Hg8 mi
8:00 PM49 °FOvercast.5 mph74%30.06 "Hg8 mi
7:00 PM49 °FOvercast.6 mph73%30.02 "Hg7 mi
6:00 PM49 °FOvercast.6 mph74%29.99 "Hg8 mi
5:00 PM50 °FOvercast.7 mph74%29.96 "Hg7 mi
4:00 PM49 °FOvercast.8 mph75%29.94 "Hg9 mi
3:00 PM48 °FLight rain. Overcast.7 mph80%29.92 "Hg6 mi
2:00 PM48 °FLight freezing rain. Overcast.8 mph82%29.90 "Hg4 mi
1:00 PM46 °FLight rain. Overcast.7 mph89%29.89 "Hg4 mi
12:00 PM45 °FLight rain. Overcast.7 mph91%29.88 "Hg6 mi
11:00 AM44 °FLight rain. Overcast.6 mph94%29.88 "Hg3 mi
10:00 AM45 °FOvercast.6 mph89%29.88 "Hg11 mi
9:00 AM45 °FOvercast.8 mph88%29.86 "Hg9 mi
8:00 AM45 °FOvercast.9 mph87%29.82 "Hg9 mi
7:00 AM45 °FOvercast.8 mph89%29.80 "Hg7 mi
6:00 AM45 °FOvercast.7 mph91%29.80 "Hg7 mi
5:00 AM44 °FLow clouds.6 mph96%29.78 "Hg9 mi
4:00 AM43 °FRain. Low clouds.7 mph97%29.77 "Hg1 mi
3:00 AM44 °FRain. Overcast.6 mph94%29.76 "Hg2 mi
2:00 AM45 °FOvercast.7 mph86%29.74 "Hg17 mi
1:00 AM45 °FOvercast.7 mph87%29.72 "Hg22 mi
Weather by CustomWeather, © 2014

See weather overviewHow to use our weather pages